Weather in Durrës

Albania     41˚18′43″N   19˚29′34″E
temp.,
°C
wind,
m/s
gust,
m/s
humid.,
%
clouds,
%
prec.,
mm/h
press.,
hPa
HPBL,
m
28 november, sat
sat2801:00+12˚se22540 0.0 1021111
04:00+11˚se22530 0.0 1021114
07:00+11˚ese23527 0.0 1021120
10:00+14˚se235069 0.0 1020248
13:00+16˚s245584 0.0 1019672
16:00+15˚s2460100 0.0 1017680
19:00+14˚e2262100 0.0 1017246
22:00+13˚se3365100 0.0 1017142
29 november, sun
sun2901:00+13˚e3464100 0.0 1016128
04:00+13˚ese4455100 0.0 1015161
07:00+13˚e3450100 0.0 1013139
10:00+15˚e3440100 0.0 1013216
13:00+18˚ne353799 0.0 1011540
16:00+16˚ssw5560100 0.0 1011325
19:00+14˚ene226499 0.0 1013181
22:00+14˚ne445699 0.0 1014136
30 november, mon
mon3001:00+13˚ne234898 0.0 1014114
04:00+12˚nne335299 0.0 1015142
07:00+11˚nne346186 0.0 1017129
10:00+13˚n345745 0.0 1018270
13:00+15˚n555222 0.0 1018465
16:00+12˚n67570 0.0 1019272
19:00+10˚nne45570 0.0 1020190
22:00+9˚nne34560 0.0 1022133
1 december, tue
tue101:00+8˚nne44590 0.0 1021157
04:00+7˚nne34560 0.0 1021161
07:00+7˚ne22510 0.0 1021155
10:00+10˚ne11390 0.0 1020280
13:00+12˚nnw22370 0.0 1018384
16:00+11˚n22420 0.0 1018199
19:00+10˚ene22399 0.0 1019147
22:00+10˚ese234540 0.0 1019164
2 december, wed
wed201:00+10˚e224670 0.0 1018160
04:00+10˚ese334960 0.0 1017150
07:00+11˚e345374 0.0 1017149
10:00+13˚e234899 0.0 1017267
13:00+15˚ese364699 0.1 1014790
16:00+15˚ese6953100 0.0 1014648
19:00+13˚ese575494 0.0 1015322
22:00+13˚ese4856100 0.1 1015361